Theta_e
340 342 345 343 342 342 343 345 346 346 346 347 348 347 346 346 346 345 344 342 341 342 341 341 341 340 339 337 336 337 335 335
338 338 339 339 341 340 342 343 344 344 345 344 343 344 344 343 342 342 341 341 340 340 339 339 339 338 337 335 335 336 335 335
337 337 336 336 337 341 342 343 342 341 342 341 338 340 339 339 338 340 337 337 338 338 337 335 336 336 335 334 334 334 333 334
336 336 336 336 341 337 337 341 339 339 339 337 337 335 335 335 335 336 334 334 336 337 337 335 335 334 333 333 329 330 332 332
337 337 337 337 338 335 335 339 336 335 335 333 333 334 336 332 330 333 331 334 333 334 334 334 333 331 332 328 327 329 330 331
339 339 339 339 339 336 335 336 335 334 333 334 335 333 333 332 332 331 331 330 330 330 331 333 332 332 330 327 327 328 330 330
339 340 340 340 338 337 336 336 335 334 332 335 335 332 329 330 328 330 331 331 331 329 329 332 332 331 329 327 326 326 329 331
339 338 341 340 338 337 336 337 336 333 333 335 333 332 329 328 326 329 330 330 331 330 328 329 331 331 329 327 325 326 327 328
338 338 339 339 337 337 335 334 335 334 333 333 333 331 329 327 326 326 329 330 330 331 328 328 327 330 328 326 326 325 326 326
339 339 338 337 336 336 334 332 333 333 333 333 333 332 331 329 328 326 328 331 330 329 328 326 324 325 326 324 325 324 325 325
337 338 337 336 334 335 333 331 331 330 332 332 331 332 331 330 328 328 328 329 329 327 326 325 323 323 325 325 323 322 323 325
336 337 337 335 334 332 330 330 329 332 329 331 330 331 329 329 328 327 330 329 327 326 325 323 323 324 327 325 318 321 322 322
334 335 334 333 331 328 327 327 328 326 328 327 329 330 329 328 325 327 330 327 325 324 323 322 323 325 323 318 316 319 320 320
333 333 332 333 331 330 327 326 326 329 324 324 326 325 326 326 326 326 327 325 324 324 323 322 321 325 319 315 309 312 314 317
332 332 331 332 330 325 323 321 321 323 325 321 323 325 325 326 327 327 326 325 323 324 323 322 320 321 322 315 309 307 311 313
332 333 331 329 327 325 323 322 320 322 325 320 321 324 324 325 327 326 326 326 324 323 324 323 323 318 319 320 316 314 308 306
332 332 329 328 328 325 323 320 318 321 320 319 319 320 323 325 326 326 325 325 325 324 324 322 323 320 317 316 314 314 313 309
331 330 328 327 326 324 322 320 318 319 319 319 321 322 323 324 326 326 325 325 324 324 324 323 322 321 319 317 315 313 312 310
329 328 325 326 324 323 322 321 320 319 319 319 321 321 322 323 324 324 324 325 324 325 324 323 322 320 319 317 317 316 316 315
328 327 323 323 323 322 322 321 320 320 320 321 320 320 321 321 322 323 323 324 324 324 324 323 322 321 320 319 318 318 317 316
Wind_Speed
9 7 9 9 10 11 12 13 13 12 12 12 12 11 10 11 10 11 13 12 11 11 11 7 13 13 12 13 14 16 9 6
13 9 7 6 6 10 11 12 13 12 11 12 12 11 9 12 15 16 15 14 14 15 12 7 19 15 12 14 16 16 10 8
10 11 9 7 5 6 10 12 11 11 8 9 10 5 8 12 10 16 15 14 13 13 10 13 17 14 14 14 14 5 7 7
9 11 11 8 6 5 5 6 4 5 5 5 5 6 6 7 8 11 12 11 12 10 11 7 9 3 5 10 4 5 4 6
11 12 11 12 7 5 3 3 3 4 6 5 6 6 6 4 4 4 5 10 4 5 7 6 4 3 5 5 6 6 4 3
15 14 14 12 8 7 6 5 4 4 5 7 7 5 6 5 5 8 5 4 7 5 5 6 4 4 9 8 6 6 5 3
14 14 13 12 12 9 7 7 6 6 6 8 9 9 8 7 6 7 6 6 7 6 8 8 9 8 6 9 6 8 9 5
14 14 12 14 11 12 9 7 7 6 6 8 9 8 8 7 7 7 6 7 7 7 7 7 7 7 4 5 8 9 9 8
17 16 14 14 11 11 9 7 7 7 7 10 10 9 9 9 7 7 8 7 8 7 4 3 3 5 7 4 3 9 9 10
17 14 15 14 13 10 7 6 7 7 7 8 10 10 10 9 8 7 7 7 7 7 8 6 4 4 7 6 4 6 10 10
17 16 17 17 11 10 9 6 7 6 7 7 9 10 11 9 8 8 9 8 8 8 6 6 4 4 7 6 6 7 9 8
19 16 17 14 10 7 5 5 5 6 6 7 10 8 10 8 7 9 9 8 7 7 8 3 4 6 7 7 4 7 8 8
18 17 15 14 11 11 8 9 6 5 3 6 8 9 11 10 6 8 9 8 9 9 6 9 4 5 6 4 2 5 9 8
19 20 20 17 13 10 6 9 4 5 4 4 5 7 7 9 10 9 9 7 10 10 9 6 4 7 3 9 4 3 1 6
19 21 21 16 15 9 6 5 5 3 5 4 4 7 7 8 9 9 9 8 9 10 9 12 8 5 10 4 5 5 7 1
21 21 22 16 18 12 17 13 12 6 6 3 4 6 7 9 9 9 9 8 9 9 9 8 8 9 8 2 2 4 6 4
18 20 19 18 17 14 12 11 5 6 5 7 5 5 6 8 10 11 10 7 7 9 9 9 8 9 9 6 3 3 2 4
12 19 18 17 15 16 16 15 11 10 8 7 6 5 5 7 8 8 8 8 10 9 11 11 10 10 5 7 8 7 6 4
9 14 16 17 17 16 15 14 13 14 11 7 7 7 5 7 8 8 8 9 9 10 10 10 12 12 10 6 5 4 8 4
13 10 7 14 15 14 13 12 8 8 9 8 7 6 6 6 5 6 7 8 9 11 10 10 10 11 13 8 5 3 3 4
Wind_Direction
141 153 156 158 162 161 160 164 167 177 178 175 174 179 182 185 179 142 131 126 128 140 141 209 190 166 144 133 124 120 116 123
150 148 143 150 173 164 161 165 168 178 184 189 172 165 171 148 146 145 135 147 152 161 165 151 217 168 149 131 128 127 133 137
153 149 147 153 168 176 166 164 173 165 164 174 146 147 143 150 159 153 158 161 159 173 170 133 254 169 152 141 133 136 150 140
166 158 156 153 168 174 174 162 174 152 160 169 138 141 145 158 163 154 160 167 167 166 118 147 209 174 160 127 125 130 146 152
177 162 164 161 166 166 186 168 168 163 169 162 130 131 141 140 137 151 151 157 144 112 142 130 179 183 190 144 159 140 136 164
178 173 167 172 159 168 179 176 180 179 173 154 143 144 151 152 165 174 156 146 135 149 141 149 161 211 203 157 156 139 150 142
185 173 174 170 170 165 175 182 184 186 162 165 158 159 165 156 169 168 162 161 164 161 162 179 177 211 203 167 152 146 155 152
181 183 184 170 172 172 174 177 179 172 166 173 161 158 159 162 160 163 171 174 176 166 173 183 188 196 168 171 150 149 148 147
181 185 178 176 179 174 169 171 171 178 169 171 163 161 159 158 165 162 172 175 177 168 175 175 181 163 123 115 168 148 147 140
189 182 182 179 173 175 165 162 167 171 161 168 165 165 163 160 171 171 166 170 179 186 186 175 181 160 136 134 173 166 153 146
185 180 182 180 172 165 156 149 150 158 156 165 170 169 168 167 176 171 166 176 186 187 186 167 158 146 135 141 187 172 154 154
178 179 181 162 157 147 139 143 147 149 157 170 174 171 164 169 172 164 167 172 178 187 183 165 169 172 153 155 218 167 155 163
172 167 170 157 164 162 163 169 169 155 155 168 178 175 172 171 158 159 163 173 187 183 165 164 162 170 144 130 37 161 168 165
170 172 171 177 164 179 164 158 161 150 139 184 178 166 169 167 164 171 171 169 180 180 171 168 160 175 162 148 153 109 230 172
174 173 176 172 152 137 116 97 88 113 176 186 188 166 162 163 173 174 173 185 187 182 182 179 181 168 190 164 154 176 140 150
178 175 171 166 153 155 164 168 163 173 180 157 170 164 166 163 170 173 173 182 184 190 180 183 171 174 165 183 40 134 150 144
180 171 167 163 159 161 160 154 143 139 144 167 177 171 165 168 173 179 179 184 179 196 187 179 177 168 174 151 133 125 97 145
176 170 169 157 160 161 158 154 152 149 157 172 183 190 186 173 179 181 180 187 188 190 190 188 179 176 170 162 155 165 176 137
179 181 159 166 162 161 156 157 155 154 161 170 172 186 187 179 180 187 191 194 191 190 189 195 186 173 170 171 136 159 182 141
166 183 169 162 158 159 156 156 153 146 157 162 183 184 165 152 163 181 195 193 198 200 198 190 186 174 167 167 161 170 181 148